Regional Weather Roundup
Issued by NWS Albany, NY

Home | Current Version | Previous Version | Text Only | Print | Product List | Glossary On
Versions: 1 2 3 4 5 6 7 8 9 10 11 12 13 14 15 16 17 18 19 20 21 22 23 24 25 26 27 28 29 30 31 32 33 34 35 36 37 38 39 40 41 42 43 44 45 46 47 48 49 50
000
ASUS41 KALY 040910
RWRALY

NEW YORK STATE HOURLY WEATHER ROUNDUP
NATIONAL WEATHER SERVICE ALBANY NY
500 AM EDT SAT JUL 04 2015

NOTE: "FAIR" INDICATES FEW OR NO CLOUDS BELOW 12,000 FEET WITH NO
SIGNIFICANT WEATHER AND/OR NO OBSTRUCTIONS TO VISIBILITY.

NYZ032-033-038>043-046>054-057>066-NYZ062>081-041000-
EAST


CITY           SKY/WX    TMP DP  RH WIND       PRES   REMARKS
ALBANY         CLOUDY    60  53  77 CALM      29.97S
GLENS FALLS    CLOUDY    56  53  90 CALM      29.97S
POUGHKEEPSIE   CLOUDY    63  59  87 CALM      29.95F
NEWBURGH       MOCLDY    66  63  88 CALM      29.98S
MONTGOMERY     LGT RAIN  63  60  90 CALM      29.96S
WHITE PLAINS   DRIZZLE   65  60  84 CALM      29.97S
ISLIP          CLOUDY    66  62  87 NE3       29.95F
NEW YORK CITY  LGT RAIN  71  56  58 CALM      29.95F
CENTRAL PARK   CLOUDY    70  60  70 CALM      29.98F
$$

NYZ005>009-017-018-044>046-055-056-041000-
CENTRAL


CITY           SKY/WX    TMP DP  RH WIND       PRES   REMARKS
FULTON         CLOUDY    62  53  72 CALM      29.90S
SYRACUSE       CLOUDY    60  55  83 E5        29.90S
ROME           CLOUDY    58  52  80 SE5       29.94F
ELMIRA         LGT RAIN  62  61  96 CALM      29.92S FOG
BINGHAMTON     LGT RAIN  62  59  90 SW3       29.96R
MONTICELLO     CLOUDY    61  55  82 E5        29.99F
$$

NYZ026>034-041>043-041000-
NORTH


CITY           SKY/WX    TMP DP  RH WIND       PRES   REMARKS
WATERTOWN      CLOUDY    56  51  84 E5        29.90S
FORT DRUM      NOT AVBL
MASSENA        CLOUDY    52  50  93 CALM      29.94S
SARANAC LAKE   CLOUDY    46  44  93 CALM      29.97S
PLATTSBURGH    CLOUDY    54  52  93 CALM      29.95S
$$

NYZ001>004-010>016-019>021-041000-
WEST


CITY           SKY/WX    TMP DP  RH WIND       PRES   REMARKS
NIAGARA FALLS  PTCLDY    57  46  66 N3        29.90R
BUFFALO        MOCLDY    57  51  80 N6        29.90R
DUNKIRK        PTCLDY    57  55  93 SE5       29.89S
JAMESTOWN      MOCLDY    61  55  82 S5        29.92F
WELLSVILLE     CLOUDY    61  59  93 SE6       29.95F FOG
ROCHESTER      CLOUDY    60  53  77 SW3       29.90R
PENN YAN       CLOUDY    64  60  87 SW6       29.92R
$$

             KEY
       WCI = WIND CHILL INDEX
       VSB = VISIBILITY
       HX  = HEAT INDEX
$$


USA.gov is the U.S. government's official web portal to all federal, state and local government web resources and services.